Вернуться в каталог

ATLAS 5 CENTAUR DEB

АктивенHEO
NORAD 47245·DEBRIS·🇺🇸 United States

Запущен Oct 17, 2018 с Cape Canaveral Space Force Station

Loading…

Ближайшие Пролёты (ближайшие 24 часа)

TLE

СвежийSource: Space-Track

Эпоха: Sep 7, 2026, 03:59 UTC

1 47245U 18079EF  26250.16617596 -.00000151  00000-0  00000-0 0  9991
2 47245  13.4068  13.7730 4929724  17.6521 354.5939  1.87228658 39474

Отслеживайте ATLAS 5 CENTAUR DEB в реальном времени с AllMySat

Download on the App Store